Terminal Aerodrome Forecast
Issued by NWS Pueblo, CO

Home | Current Version | Previous Version | Text Only | Print | Product List | Glossary On
Versions: 1 2 3 4 5 6 7 8 9 10 11 12 13 14 15 16 17 18 19 20 21 22 23 24 25 26 27 28 29 30 31 32 33
000
FTUS45 KPUB 011739
TAFPUB
TAF
KPUB 011739Z 0118/0218 14009KT P6SM FEW070 FEW120
     FM012200 09015KT P6SM SCT110
     FM020300 VRB06KT P6SM FEW100=

USA.gov is the U.S. government's official web portal to all federal, state and local government web resources and services.